Date String (YYYY-MM-DD hh:mm:ss) UTC,Instrument flags,Ambient pressure (hPa),Sample flow (lpm),Bypass flow (lpm),Sample temperature (°C),Ambient temperature (°C),ASC tube jacket temperature (°C),LED temperature (°C),Box temperature (°C),Sample RH (%),Span deviation,Mass concentration (μg/m³),Mass concentration (μg/m³),Mass concentration (μg/m³)
DateTimeUTC,F1_M11,P_M11,Q1_M11,Q2_M11,T1_M11,T2_M11,T3_M11,T4_M11,T5_M11,U1_M11,ZSPAN_M11,X0_M11,X2_M11,X1_M11
2022-03-15 07:00:00,,0830.6,4.98,0.00,26.1,25.1,00.0,35.1,27.8,07.0,0000.0,0004.84,0002.15,0001.52
2022-03-15 07:01:00,,0830.6,5.01,0.00,26.1,25.1,00.0,35.1,27.8,07.0,0000.0,0004.76,0002.12,0001.52
2022-03-15 07:02:00,,0830.5,5.00,0.00,26.1,25.1,00.0,35.1,27.7,07.2,0000.0,0004.42,0002.09,0001.51
2022-03-15 07:03:00,,0830.5,5.01,0.00,26.0,25.1,00.0,35.1,27.7,07.3,0000.0,0004.01,0002.08,0001.51
2022-03-15 07:04:00,,0830.6,4.98,0.00,26.0,25.1,00.0,35.1,27.8,07.2,0000.0,0003.90,0002.08,0001.50
2022-03-15 07:05:00,,0830.6,5.00,0.00,26.0,25.1,00.0,35.1,27.7,07.2,0000.0,0004.01,0002.08,0001.49
2022-03-15 07:06:00,,0830.6,5.00,0.00,26.0,25.1,00.0,35.1,27.7,07.3,0000.0,0004.09,0002.07,0001.49
2022-03-15 07:07:00,,0830.6,5.01,0.00,26.0,25.1,00.0,35.1,27.7,07.3,0000.0,0004.20,0002.11,0001.49
2022-03-15 07:08:00,,0830.6,4.99,0.00,26.0,25.0,00.0,35.1,27.7,07.3,0000.0,0004.08,0002.12,0001.48
2022-03-15 07:09:00,,0830.6,5.01,0.00,26.0,25.0,00.0,35.0,27.7,07.3,0000.0,0004.11,0002.16,0001.48
2022-03-15 07:10:00,,0830.6,5.01,0.00,26.0,25.0,00.0,35.0,27.7,07.3,0000.0,0003.87,0002.14,0001.47
2022-03-15 07:11:00,,0830.5,4.98,0.00,26.0,25.0,00.0,35.0,27.7,07.2,0000.0,0003.77,0002.12,0001.46
2022-03-15 07:12:00,,0830.6,5.00,0.00,26.0,25.0,00.0,35.0,27.6,07.2,0000.0,0003.84,0002.16,0001.45
2022-03-15 07:13:00,,0830.6,5.01,0.00,26.0,25.0,00.0,35.0,27.6,07.2,0000.0,0003.78,0002.12,0001.43
2022-03-15 07:14:00,,0830.5,5.01,0.00,25.9,25.0,00.0,35.0,27.7,07.2,0000.0,0003.89,0002.16,0001.43
2022-03-15 07:15:00,,0830.6,4.98,0.00,25.9,25.0,00.0,35.0,27.6,07.1,0000.0,0003.96,0002.22,0001.43
2022-03-15 07:16:00,,0830.6,5.00,0.00,25.9,24.9,00.0,35.0,27.6,07.1,0000.0,0003.74,0002.19,0001.42
2022-03-15 07:17:00,,0830.6,5.00,0.00,25.9,24.9,00.0,35.0,27.6,07.1,0000.0,0003.51,0002.13,0001.42
2022-03-15 07:18:00,,0830.6,5.01,0.00,25.9,24.9,00.0,35.0,27.6,07.1,0000.0,0003.56,0002.12,0001.42
2022-03-15 07:19:00,,0830.6,5.01,0.00,25.9,24.9,00.0,35.0,27.6,07.1,0000.0,0004.04,0002.10,0001.42
2022-03-15 07:20:00,,0830.5,4.98,0.00,25.9,24.9,00.0,34.9,27.6,07.1,0000.0,0004.03,0002.09,0001.42
2022-03-15 07:21:00,,0830.5,5.01,0.00,25.9,24.9,00.0,34.9,27.6,07.1,0000.0,0004.05,0002.11,0001.44
2022-03-15 07:22:00,,0830.6,5.00,0.00,25.9,24.9,00.0,34.9,27.6,07.1,0000.0,0004.07,0002.12,0001.45
2022-03-15 07:23:00,,0830.6,4.99,0.00,25.8,24.9,00.0,34.9,27.6,07.1,0000.0,0004.65,0002.08,0001.46
2022-03-15 07:24:00,,0830.6,5.01,0.00,25.8,24.9,00.0,34.9,27.6,07.1,0000.0,0005.17,0002.13,0001.49
2022-03-15 07:25:00,,0830.5,5.00,0.00,25.8,24.9,00.0,34.9,27.6,07.1,0000.0,0005.22,0002.14,0001.49
2022-03-15 07:26:00,,0830.6,4.99,0.00,25.8,24.9,00.0,34.9,27.6,07.1,0000.0,0005.02,0002.09,0001.50
2022-03-15 07:27:00,,0830.6,5.01,0.00,25.8,24.9,00.0,34.9,27.6,07.1,0000.0,0004.97,0002.07,0001.51
2022-03-15 07:28:00,,0830.5,4.99,0.00,25.8,24.9,00.0,34.9,27.6,07.1,0000.0,0005.06,0002.11,0001.52
2022-03-15 07:29:00,,0830.6,5.00,0.00,25.8,24.9,00.0,34.9,27.6,07.1,0000.0,0005.19,0002.12,0001.50
2022-03-15 07:30:00,,0830.6,5.01,0.00,25.8,24.9,00.0,34.8,27.6,07.1,0000.0,0004.81,0002.15,0001.50
2022-03-15 07:31:00,,0830.6,4.99,0.00,25.8,24.9,00.0,34.8,27.6,07.1,0000.0,0004.73,0002.18,0001.50
2022-03-15 07:32:00,,0830.6,5.02,0.00,25.8,24.9,00.0,34.8,27.6,07.1,0000.0,0004.66,0002.15,0001.50
2022-03-15 07:33:00,,0830.6,4.99,0.00,25.8,24.9,00.0,34.8,27.5,07.2,0000.0,0005.34,0002.12,0001.50
2022-03-15 07:34:00,,0830.6,5.01,0.00,25.8,24.9,00.0,34.8,27.5,07.2,0000.0,0005.39,0002.08,0001.48
2022-03-15 07:35:00,,0830.6,5.01,0.00,25.8,24.8,00.0,34.8,27.5,07.2,0000.0,0004.41,0002.08,0001.48
2022-03-15 07:36:00,,0830.6,4.98,0.00,25.8,24.8,00.0,34.8,27.5,07.2,0000.0,0004.27,0002.05,0001.48
2022-03-15 07:37:00,,0830.6,5.01,0.00,25.7,24.8,00.0,34.8,27.5,07.1,0000.0,0004.37,0002.07,0001.48
2022-03-15 07:38:00,,0830.5,5.00,0.00,25.7,24.8,00.0,34.8,27.5,07.1,0000.0,0004.52,0002.11,0001.48
2022-03-15 07:39:00,,0830.6,4.98,0.00,25.7,24.9,00.0,34.8,27.5,07.1,0000.0,0004.56,0002.14,0001.49
2022-03-15 07:40:00,,0830.6,5.00,0.00,25.7,24.9,00.0,34.8,27.5,07.1,0000.0,0004.55,0002.17,0001.51
2022-03-15 07:41:00,,0830.5,5.01,0.00,25.8,24.9,00.0,34.8,27.5,07.1,0000.0,0004.52,0002.17,0001.52
2022-03-15 07:42:00,,0830.6,4.99,0.00,25.7,24.9,00.0,34.8,27.5,07.1,0000.0,0004.45,0002.19,0001.53
2022-03-15 07:43:00,,0830.7,5.01,0.00,25.8,24.9,00.0,34.7,27.5,07.1,0000.0,0004.52,0002.18,0001.53
2022-03-15 07:44:00,,0830.7,5.00,0.00,25.8,24.9,00.0,34.7,27.5,07.1,0000.0,0003.95,0002.17,0001.53
2022-03-15 07:45:00,,0830.7,4.99,0.00,25.7,24.9,00.0,34.7,27.5,07.1,0000.0,0003.66,0002.17,0001.54
2022-03-15 07:46:00,,0830.8,5.01,0.00,25.7,24.9,00.0,34.7,27.6,07.1,0000.0,0003.59,0002.14,0001.53
2022-03-15 07:47:00,,0830.7,5.00,0.00,25.7,24.9,00.0,34.7,27.5,07.1,0000.0,0003.56,0002.13,0001.53
2022-03-15 07:48:00,,0830.7,5.00,0.00,25.7,24.9,00.0,34.7,27.5,07.0,0000.0,0003.53,0002.10,0001.53
2022-03-15 07:49:00,,0830.8,5.01,0.00,25.7,24.8,00.0,34.7,27.5,07.0,0000.0,0003.64,0002.16,0001.53
2022-03-15 07:50:00,,0830.7,5.01,0.00,25.7,24.9,00.0,34.7,27.5,07.0,0000.0,0003.70,0002.15,0001.52
2022-03-15 07:51:00,,0830.7,4.99,0.00,25.7,24.8,00.0,34.7,27.5,07.0,0000.0,0003.90,0002.12,0001.51
2022-03-15 07:52:00,,0830.7,5.01,0.00,25.7,24.8,00.0,34.7,27.5,07.0,0000.0,0003.88,0002.11,0001.52
2022-03-15 07:53:00,,0830.7,5.00,0.00,25.7,24.8,00.0,34.7,27.5,07.0,0000.0,0003.88,0002.10,0001.51
2022-03-15 07:54:00,,0830.8,5.00,0.00,25.7,24.8,00.0,34.7,27.4,07.4,0000.0,0003.89,0002.11,0001.49
2022-03-15 07:55:00,,0830.8,4.98,0.00,25.6,24.7,00.0,34.7,27.3,07.8,0000.0,0003.65,0002.12,0001.50
2022-03-15 07:56:00,,0830.8,5.00,0.00,25.6,24.6,00.0,34.7,27.3,07.7,0000.0,0003.73,0002.13,0001.50
2022-03-15 07:57:00,,0830.8,5.00,0.00,25.5,24.5,00.0,34.6,27.2,07.5,0000.0,0003.77,0002.15,0001.50
2022-03-15 07:58:00,,0830.8,5.00,0.00,25.5,24.5,00.0,34.6,27.2,07.6,0000.0,0003.86,0002.17,0001.49
2022-03-15 07:59:00,,0830.9,5.01,0.00,25.5,24.5,00.0,34.6,27.2,07.7,0000.0,0004.11,0002.18,0001.50
